Darstellungsparameter: Aktuell verwendete Einstellungen:
Skalierung der Graphiken ... ?
xyx+y,   Skalierungsfaktor:      Skalierung: Modus: x, Faktor: 1
Darstellungszeitraum ... ?
Vom - - bis: - -   Zeitraum: 21.05.2022 - 22.05.2022
Min/Max/Avg-Anzeige ... ?
Zeige MMA aktuell
Zeige MMA Monat
Zeige MMA alles
Zeige --A aktuell
Zeige --A Monat
Zeige --A alles
Keine MMA-Anzeige
MMA:
Average (ber die Originaldaten)
MMA-Basis: 21.05.2022 - 22.05.2022
Quicknavigation für Darstellung... ?
Tage:      1T, 2T, 3T, 5T -1T -2T -3T -5T +1T +2T +3T +5T
Wochen: 1W, 2W, 3W -1W -2W -3W +1W +2W +3W
Monate: 1M, 3M, 6M -1M -3M -6M +1M +3M +6M
Jahre:    1J, 3J, 5J, 10J -1J -3J -5J -10J +1J +3J +5J +10J
Nutze für die Darstellung ... ?
Originaldaten oder Mittelwerte auf ...
Stundenbasis Tagesbasis Wochenbasis
Monatsbasis Jahresbasis      Datenbasis: Original-Daten
Darstellen als:
Statistik (Auto) Statistik J:M      Darstellung:
Zur Graphik,    zurück zur Übersicht aller Sensoren.
 
Tabellarische Datenbersicht: ?
 
Sensor: Nr:Datum:Temp:Abs-Feuchte:Windchill:Wind:
Aussen-T/F 1 21-05-2022 00:00:00 14 C 10.98 g/m*3 14 C 6.4 km/h
2 21-05-2022 00:05:00 13.9 C 11.03 g/m*3 13.9 C 9.7 km/h
3 21-05-2022 00:10:00 13.8 C 10.72 g/m*3 13.8 C 14.5 km/h
4 21-05-2022 00:15:00 13.8 C 10.72 g/m*3 13.8 C 9.7 km/h
5 21-05-2022 00:20:00 13.7 C 10.66 g/m*3 13.7 C 6.4 km/h
6 21-05-2022 00:25:00 13.7 C 10.78 g/m*3 13.7 C 9.7 km/h
7 21-05-2022 00:30:00 13.6 C 10.47 g/m*3 13.6 C 6.4 km/h
8 21-05-2022 00:35:00 13.6 C 10.59 g/m*3 13.6 C 6.4 km/h
9 21-05-2022 00:40:00 13.5 C 10.41 g/m*3 13.5 C 11.3 km/h
10 21-05-2022 00:45:00 13.4 C 10.35 g/m*3 13.4 C 9.7 km/h
11 21-05-2022 00:50:00 13.4 C 10.35 g/m*3 13.4 C 9.7 km/h
12 21-05-2022 00:55:00 13.4 C 10.23 g/m*3 13.4 C 20.9 km/h
13 21-05-2022 01:00:00 13.3 C 10.05 g/m*3 13.3 C 19.3 km/h
14 21-05-2022 01:05:00 13.3 C 10.05 g/m*3 13.3 C 12.9 km/h
15 21-05-2022 01:10:00 13.1 C 9.93 g/m*3 13.1 C 19.3 km/h
16 21-05-2022 01:15:00 12.9 C 9.81 g/m*3 12.9 C 11.3 km/h
17 21-05-2022 01:20:00 12.8 C 9.74 g/m*3 12.8 C 11.3 km/h
18 21-05-2022 01:25:00 12.7 C 9.8 g/m*3 12.7 C 6.4 km/h
19 21-05-2022 01:30:00 12.5 C 9.68 g/m*3 12.5 C 4.8 km/h
20 21-05-2022 01:35:00 12.4 C 9.62 g/m*3 12.4 C 6.4 km/h
21 21-05-2022 01:40:00 12.3 C 9.66 g/m*3 12.3 C 8.1 km/h
22 21-05-2022 01:45:00 12.2 C 9.6 g/m*3 12.2 C 11.3 km/h
23 21-05-2022 01:50:00 12.1 C 9.54 g/m*3 12.1 C 9.7 km/h
24 21-05-2022 01:55:00 12.1 C 9.54 g/m*3 12.1 C 6.4 km/h
25 21-05-2022 02:00:00 12 C 9.59 g/m*3 12 C 4.8 km/h
Sensor: Nr:Datum:Temp:Abs-Feuchte:Windchill:Wind:
Aussen-T/F 26 21-05-2022 02:05:00 11.9 C 9.53 g/m*3 11.9 C 6.4 km/h
27 21-05-2022 02:10:00 11.8 C 9.47 g/m*3 11.8 C 4.8 km/h
28 21-05-2022 02:15:00 11.7 C 9.52 g/m*3 11.7 C 3.2 km/h
29 21-05-2022 02:20:00 11.7 C 9.52 g/m*3 11.7 C 4.8 km/h
30 21-05-2022 02:25:00 11.6 C 9.46 g/m*3 11.6 C 3.2 km/h
31 21-05-2022 02:30:00 11.4 C 9.34 g/m*3 11.4 C 6.4 km/h
32 21-05-2022 02:35:00 11.4 C 9.44 g/m*3 11.4 C 6.4 km/h
33 21-05-2022 02:40:00 11.3 C 9.38 g/m*3 11.3 C 4.8 km/h
34 21-05-2022 02:45:00 11.3 C 9.38 g/m*3 11.3 C 6.4 km/h
35 21-05-2022 02:50:00 11.2 C 9.33 g/m*3 11.2 C 3.2 km/h
36 21-05-2022 02:55:00 11.1 C 9.27 g/m*3 11.1 C 4.8 km/h
37 21-05-2022 03:00:00 11.1 C 9.27 g/m*3 11.1 C 4.8 km/h
38 21-05-2022 03:05:00 10.9 C 9.15 g/m*3 10.9 C 4.8 km/h
39 21-05-2022 03:10:00 10.9 C 9.25 g/m*3 10.9 C 3.2 km/h
40 21-05-2022 03:15:00 10.8 C 9.19 g/m*3 10.8 C 1.6 km/h
41 21-05-2022 03:20:00 10.8 C 9.19 g/m*3 10.8 C 3.2 km/h
42 21-05-2022 03:25:00 10.7 C 9.13 g/m*3 10.7 C 3.2 km/h
43 21-05-2022 03:30:00 10.7 C 9.13 g/m*3 10.7 C 3.2 km/h
44 21-05-2022 03:35:00 10.6 C 9.08 g/m*3 10.6 C 3.2 km/h
45 21-05-2022 03:40:00 10.6 C 9.17 g/m*3 10.06 C 6.4 km/h
46 21-05-2022 03:45:00 10.6 C 9.08 g/m*3 10.6 C 1.6 km/h
47 21-05-2022 03:50:00 10.6 C 9.17 g/m*3 9.4 C 9.7 km/h
48 21-05-2022 03:55:00 10.6 C 9.17 g/m*3 10.6 C 4.8 km/h
49 21-05-2022 04:00:00 10.6 C 9.17 g/m*3 10.06 C 6.4 km/h
50 21-05-2022 04:05:00 10.6 C 9.17 g/m*3 9.4 C 9.7 km/h
Sensor: Nr:Datum:Temp:Abs-Feuchte:Windchill:Wind:
Aussen-T/F 51 21-05-2022 04:10:00 10.7 C 9.23 g/m*3 9.81 C 8.1 km/h
52 21-05-2022 04:15:00 10.7 C 9.23 g/m*3 10.18 C 6.4 km/h
53 21-05-2022 04:20:00 10.8 C 9.29 g/m*3 8.96 C 14.5 km/h
54 21-05-2022 04:25:00 10.8 C 9.29 g/m*3 9.38 C 11.3 km/h
55 21-05-2022 04:30:00 10.9 C 9.25 g/m*3 10.04 C 8.1 km/h
56 21-05-2022 04:35:00 10.9 C 9.25 g/m*3 10.04 C 8.1 km/h
57 21-05-2022 04:40:00 10.9 C 9.25 g/m*3 10.04 C 8.1 km/h
58 21-05-2022 04:45:00 10.9 C 9.25 g/m*3 8.73 C 17.7 km/h
59 21-05-2022 04:50:00 10.9 C 9.15 g/m*3 9.51 C 11.3 km/h
60 21-05-2022 04:55:00 11 C 9.21 g/m*3 9.63 C 11.3 km/h
61 21-05-2022 05:00:00 11 C 9.21 g/m*3 11 C 4.8 km/h
62 21-05-2022 05:05:00 10.9 C 9.15 g/m*3 10.41 C 6.4 km/h
63 21-05-2022 05:10:00 10.9 C 9.15 g/m*3 10.04 C 8.1 km/h
64 21-05-2022 05:15:00 10.9 C 9.15 g/m*3 10.41 C 6.4 km/h
65 21-05-2022 05:20:00 10.8 C 9.09 g/m*3 9.38 C 11.3 km/h
66 21-05-2022 05:25:00 10.8 C 9.09 g/m*3 10.29 C 6.4 km/h
67 21-05-2022 05:30:00 10.8 C 9.09 g/m*3 9.93 C 8.1 km/h
68 21-05-2022 05:35:00 10.8 C 9.09 g/m*3 10.8 C 3.2 km/h
69 21-05-2022 05:40:00 10.7 C 9.04 g/m*3 9.81 C 8.1 km/h
70 21-05-2022 05:45:00 10.7 C 9.13 g/m*3 10.7 C 0 km/h
71 21-05-2022 05:50:00 10.6 C 8.98 g/m*3 10.6 C 1.6 km/h
72 21-05-2022 05:55:00 10.5 C 9.02 g/m*3 9.95 C 6.4 km/h
73 21-05-2022 06:00:00 10.4 C 8.96 g/m*3 10.4 C 1.6 km/h
74 21-05-2022 06:05:00 10.4 C 8.96 g/m*3 9.46 C 8.1 km/h
75 21-05-2022 06:10:00 10.4 C 8.96 g/m*3 10.4 C 4.8 km/h
Sensor: Nr:Datum:Temp:Abs-Feuchte:Windchill:Wind:
Aussen-T/F 76 21-05-2022 06:15:00 10.5 C 9.02 g/m*3 8.8 C 12.9 km/h
77 21-05-2022 06:20:00 10.5 C 9.02 g/m*3 9.95 C 6.4 km/h
78 21-05-2022 06:25:00 10.5 C 9.02 g/m*3 9.57 C 8.1 km/h
79 21-05-2022 06:30:00 10.5 C 9.02 g/m*3 9.57 C 8.1 km/h
80 21-05-2022 06:35:00 10.5 C 9.02 g/m*3 9.95 C 6.4 km/h
81 21-05-2022 06:40:00 10.6 C 9.08 g/m*3 9.69 C 8.1 km/h
82 21-05-2022 06:45:00 10.6 C 9.08 g/m*3 9.69 C 8.1 km/h
83 21-05-2022 06:50:00 10.6 C 9.08 g/m*3 9.4 C 9.7 km/h
84 21-05-2022 06:55:00 10.7 C 9.13 g/m*3 9.81 C 8.1 km/h
85 21-05-2022 07:00:00 10.9 C 9.25 g/m*3 9.51 C 11.3 km/h
86 21-05-2022 07:05:00 10.9 C 9.15 g/m*3 9.76 C 9.7 km/h
87 21-05-2022 07:10:00 11.1 C 9.27 g/m*3 11.1 C 11.3 km/h
88 21-05-2022 07:15:00 11.2 C 9.33 g/m*3 11.2 C 11.3 km/h
89 21-05-2022 07:20:00 11.2 C 9.33 g/m*3 11.2 C 8.1 km/h
90 21-05-2022 07:25:00 11.3 C 9.28 g/m*3 11.3 C 11.3 km/h
91 21-05-2022 07:30:00 11.4 C 9.34 g/m*3 11.4 C 16.1 km/h
92 21-05-2022 07:35:00 11.6 C 9.46 g/m*3 11.6 C 8.1 km/h
93 21-05-2022 07:40:00 11.6 C 9.46 g/m*3 11.6 C 11.3 km/h
94 21-05-2022 07:45:00 11.7 C 9.41 g/m*3 11.7 C 14.5 km/h
95 21-05-2022 07:50:00 11.8 C 9.47 g/m*3 11.8 C 11.3 km/h
96 21-05-2022 07:55:00 11.9 C 9.53 g/m*3 11.9 C 16.1 km/h
97 21-05-2022 08:00:00 11.9 C 9.43 g/m*3 11.9 C 12.9 km/h
98 21-05-2022 08:05:00 12 C 9.48 g/m*3 12 C 11.3 km/h
99 21-05-2022 08:10:00 12.1 C 9.54 g/m*3 12.1 C 14.5 km/h
100 21-05-2022 08:15:00 12.2 C 9.6 g/m*3 12.2 C 12.9 km/h
Sensor: Nr:Datum:Temp:Abs-Feuchte:Windchill:Wind:
Aussen-T/F 101 21-05-2022 08:20:00 12.4 C 9.62 g/m*3 12.4 C 14.5 km/h
102 21-05-2022 08:25:00 12.5 C 9.68 g/m*3 12.5 C 11.3 km/h
103 21-05-2022 08:30:00 12.6 C 9.74 g/m*3 12.6 C 12.9 km/h
104 21-05-2022 08:35:00 12.8 C 9.74 g/m*3 12.8 C 14.5 km/h
105 21-05-2022 08:40:00 13.3 C 9.94 g/m*3 13.3 C 11.3 km/h
106 21-05-2022 08:45:00 13.5 C 9.94 g/m*3 13.5 C 16.1 km/h
107 21-05-2022 08:50:00 13.7 C 10.07 g/m*3 13.7 C 14.5 km/h
108 21-05-2022 08:55:00 13.7 C 9.95 g/m*3 13.7 C 12.9 km/h
109 21-05-2022 09:00:00 13.8 C 10.01 g/m*3 13.8 C 14.5 km/h
110 21-05-2022 09:05:00 14 C 10.13 g/m*3 14 C 16.1 km/h
111 21-05-2022 09:10:00 14.1 C 10.19 g/m*3 14.1 C 11.3 km/h
112 21-05-2022 09:15:00 14.3 C 10.2 g/m*3 14.3 C 12.9 km/h
113 21-05-2022 09:20:00 14.4 C 10.26 g/m*3 14.4 C 11.3 km/h
114 21-05-2022 09:25:00 14.5 C 10.45 g/m*3 14.5 C 9.7 km/h
115 21-05-2022 09:30:00 14.5 C 9.95 g/m*3 14.5 C 16.1 km/h
116 21-05-2022 09:35:00 14.7 C 10.2 g/m*3 14.7 C 11.3 km/h
117 21-05-2022 09:40:00 14.8 C 10.39 g/m*3 14.8 C 12.9 km/h
118 21-05-2022 09:45:00 15 C 10 g/m*3 15 C 17.7 km/h
119 21-05-2022 09:50:00 15.1 C 10.06 g/m*3 15.1 C 12.9 km/h
120 21-05-2022 09:55:00 15.1 C 9.8 g/m*3 15.1 C 14.5 km/h
121 21-05-2022 10:00:00 15.2 C 9.86 g/m*3 15.2 C 16.1 km/h
122 21-05-2022 10:05:00 15.2 C 9.99 g/m*3 15.2 C 12.9 km/h
123 21-05-2022 10:10:00 15.3 C 10.06 g/m*3 15.3 C 12.9 km/h
124 21-05-2022 10:15:00 15.4 C 10.12 g/m*3 15.4 C 9.7 km/h
125 21-05-2022 10:20:00 15.6 C 10.37 g/m*3 15.6 C 12.9 km/h
Sensor: Nr:Datum:Temp:Abs-Feuchte:Windchill:Wind:
Aussen-T/F 126 21-05-2022 10:25:00 15.7 C 10.17 g/m*3 15.7 C 11.3 km/h
127 21-05-2022 10:30:00 15.8 C 10.23 g/m*3 15.8 C 9.7 km/h
128 21-05-2022 10:35:00 16.1 C 10.28 g/m*3 16.1 C 11.3 km/h
129 21-05-2022 10:40:00 16.3 C 10.13 g/m*3 16.3 C 12.9 km/h
130 21-05-2022 10:45:00 16.5 C 10.39 g/m*3 16.5 C 12.9 km/h
131 21-05-2022 10:50:00 16.7 C 10.37 g/m*3 16.7 C 14.5 km/h
132 21-05-2022 10:55:00 16.7 C 9.95 g/m*3 16.7 C 14.5 km/h
133 21-05-2022 11:00:00 16.7 C 10.66 g/m*3 16.7 C 9.7 km/h
134 21-05-2022 11:05:00 16.7 C 10.23 g/m*3 16.7 C 9.7 km/h
135 21-05-2022 11:10:00 16.8 C 10.29 g/m*3 16.8 C 12.9 km/h
136 21-05-2022 11:15:00 17.1 C 10.34 g/m*3 17.1 C 14.5 km/h
137 21-05-2022 11:20:00 17.3 C 10.75 g/m*3 17.3 C 11.3 km/h
138 21-05-2022 11:25:00 17.4 C 10.52 g/m*3 17.4 C 14.5 km/h
139 21-05-2022 11:30:00 17.5 C 10.59 g/m*3 17.5 C 11.3 km/h
140 21-05-2022 11:35:00 17.6 C 10.5 g/m*3 17.6 C 17.7 km/h
141 21-05-2022 11:40:00 17.5 C 10.59 g/m*3 17.5 C 11.3 km/h
142 21-05-2022 11:45:00 17.6 C 10.8 g/m*3 17.6 C 12.9 km/h
143 21-05-2022 11:50:00 17.7 C 10.71 g/m*3 17.7 C 11.3 km/h
144 21-05-2022 11:55:00 17.8 C 10.47 g/m*3 17.8 C 11.3 km/h
145 21-05-2022 12:00:00 17.9 C 10.69 g/m*3 17.9 C 11.3 km/h
146 21-05-2022 12:05:00 18.1 C 10.66 g/m*3 18.1 C 11.3 km/h
147 21-05-2022 12:10:00 18.2 C 10.72 g/m*3 18.2 C 11.3 km/h
148 21-05-2022 12:15:00 18.4 C 10.85 g/m*3 18.4 C 9.7 km/h
149 21-05-2022 12:20:00 18.5 C 10.28 g/m*3 18.5 C 14.5 km/h
150 21-05-2022 12:25:00 18.4 C 10.22 g/m*3 18.4 C 16.1 km/h
Sensor: Nr:Datum:Temp:Abs-Feuchte:Windchill:Wind:
Aussen-T/F 151 21-05-2022 12:30:00 18.4 C 10.22 g/m*3 18.4 C 11.3 km/h
152 21-05-2022 12:35:00 18.6 C 10.35 g/m*3 18.6 C 9.7 km/h
153 21-05-2022 12:40:00 18.8 C 10.31 g/m*3 18.8 C 9.7 km/h
154 21-05-2022 12:45:00 18.9 C 10.21 g/m*3 18.9 C 12.9 km/h
155 21-05-2022 12:50:00 19.1 C 10.49 g/m*3 19.1 C 14.5 km/h
156 21-05-2022 12:55:00 19.3 C 10.28 g/m*3 19.3 C 11.3 km/h
157 21-05-2022 13:00:00 19.4 C 10.18 g/m*3 19.4 C 9.7 km/h
158 21-05-2022 13:05:00 19.5 C 10.41 g/m*3 19.5 C 9.7 km/h
159 21-05-2022 13:10:00 19.4 C 10.01 g/m*3 19.4 C 8.1 km/h
160 21-05-2022 13:15:00 19.5 C 9.9 g/m*3 19.5 C 12.9 km/h
161 21-05-2022 13:20:00 19.3 C 9.45 g/m*3 19.3 C 11.3 km/h
162 21-05-2022 13:25:00 19.3 C 9.95 g/m*3 19.3 C 9.7 km/h
163 21-05-2022 13:30:00 19.4 C 10.01 g/m*3 19.4 C 9.7 km/h
164 21-05-2022 13:35:00 19.7 C 9.68 g/m*3 19.7 C 11.3 km/h
165 21-05-2022 13:40:00 19.8 C 9.91 g/m*3 19.8 C 11.3 km/h
166 21-05-2022 13:45:00 19.8 C 10.08 g/m*3 19.8 C 11.3 km/h
167 21-05-2022 13:50:00 19.7 C 9.68 g/m*3 19.7 C 4.8 km/h
168 21-05-2022 13:55:00 19.7 C 9.85 g/m*3 19.7 C 9.7 km/h
169 21-05-2022 14:00:00 19.8 C 9.91 g/m*3 19.8 C 9.7 km/h
170 21-05-2022 14:05:00 19.8 C 9.91 g/m*3 19.8 C 11.3 km/h
171 21-05-2022 14:10:00 19.7 C 9.34 g/m*3 19.7 C 4.8 km/h
172 21-05-2022 14:15:00 19.8 C 9.74 g/m*3 19.8 C 11.3 km/h
173 21-05-2022 14:20:00 19.8 C 9.39 g/m*3 19.8 C 4.8 km/h
174 21-05-2022 14:25:00 19.7 C 10.19 g/m*3 19.7 C 6.4 km/h
175 21-05-2022 14:30:00 19.7 C 9.34 g/m*3 19.7 C 11.3 km/h
Sensor: Nr:Datum:Temp:Abs-Feuchte:Windchill:Wind:
Aussen-T/F 176 21-05-2022 14:35:00 19.8 C 9.74 g/m*3 19.8 C 14.5 km/h
177 21-05-2022 14:40:00 19.9 C 9.45 g/m*3 19.9 C 8.1 km/h
178 21-05-2022 14:45:00 19.9 C 9.28 g/m*3 19.9 C 6.4 km/h
179 21-05-2022 14:50:00 20.1 C 9.56 g/m*3 20.1 C 9.7 km/h
180 21-05-2022 14:55:00 20.2 C 9.44 g/m*3 20.2 C 9.7 km/h
181 21-05-2022 15:00:00 20.3 C 9.67 g/m*3 20.3 C 8.1 km/h
182 21-05-2022 15:05:00 20.2 C 9.79 g/m*3 20.2 C 9.7 km/h
183 21-05-2022 15:10:00 20.2 C 9.62 g/m*3 20.2 C 8.1 km/h
184 21-05-2022 15:15:00 20.3 C 9.32 g/m*3 20.3 C 8.1 km/h
185 21-05-2022 15:20:00 20.3 C 8.97 g/m*3 20.3 C 4.8 km/h
186 21-05-2022 15:25:00 20.4 C 9.02 g/m*3 20.4 C 12.9 km/h
187 21-05-2022 15:30:00 20.7 C 9.72 g/m*3 20.7 C 9.7 km/h
188 21-05-2022 15:35:00 20.9 C 9.29 g/m*3 20.9 C 11.3 km/h
189 21-05-2022 15:40:00 20.9 C 10.02 g/m*3 20.9 C 6.4 km/h
190 21-05-2022 15:45:00 20.8 C 9.42 g/m*3 20.8 C 8.1 km/h
191 21-05-2022 15:50:00 20.9 C 10.02 g/m*3 20.9 C 8.1 km/h
192 21-05-2022 15:55:00 20.9 C 9.47 g/m*3 20.9 C 4.8 km/h
193 21-05-2022 16:00:00 21.1 C 9.58 g/m*3 21.1 C 11.3 km/h
194 21-05-2022 16:05:00 20.9 C 9.65 g/m*3 20.9 C 6.4 km/h
195 21-05-2022 16:10:00 20.9 C 9.65 g/m*3 20.9 C 6.4 km/h
196 21-05-2022 16:15:00 21.1 C 9.95 g/m*3 21.1 C 12.9 km/h
197 21-05-2022 16:20:00 21.1 C 9.4 g/m*3 21.1 C 11.3 km/h
198 21-05-2022 16:25:00 21.1 C 9.03 g/m*3 21.1 C 9.7 km/h
199 21-05-2022 16:30:00 21 C 9.16 g/m*3 21 C 8.1 km/h
200 21-05-2022 16:35:00 20.8 C 9.23 g/m*3 20.8 C 11.3 km/h
Sensor: Nr:Datum:Temp:Abs-Feuchte:Windchill:Wind:
Aussen-T/F 201 21-05-2022 16:40:00 20.8 C 9.23 g/m*3 20.8 C 4.8 km/h
202 21-05-2022 16:45:00 20.8 C 9.23 g/m*3 20.8 C 8.1 km/h
203 21-05-2022 16:50:00 21.1 C 9.77 g/m*3 21.1 C 11.3 km/h
204 21-05-2022 16:55:00 21.1 C 9.58 g/m*3 21.1 C 11.3 km/h
205 21-05-2022 17:00:00 20.8 C 9.42 g/m*3 20.8 C 14.5 km/h
206 21-05-2022 17:05:00 20.6 C 9.84 g/m*3 20.6 C 6.4 km/h
207 21-05-2022 17:10:00 20.6 C 9.66 g/m*3 20.6 C 6.4 km/h
208 21-05-2022 17:15:00 21.1 C 9.4 g/m*3 21.1 C 6.4 km/h
209 21-05-2022 17:20:00 21.5 C 9.81 g/m*3 21.5 C 6.4 km/h
210 21-05-2022 17:25:00 21.9 C 9.84 g/m*3 21.9 C 9.7 km/h
211 21-05-2022 17:30:00 21.9 C 9.65 g/m*3 21.9 C 8.1 km/h
212 21-05-2022 17:35:00 22 C 9.7 g/m*3 22 C 8.1 km/h
213 21-05-2022 17:40:00 22.1 C 9.56 g/m*3 22.1 C 11.3 km/h
214 21-05-2022 17:45:00 22.2 C 10.01 g/m*3 22.2 C 9.7 km/h
215 21-05-2022 17:50:00 22.4 C 9.93 g/m*3 22.4 C 6.4 km/h
216 21-05-2022 17:55:00 22.6 C 10.04 g/m*3 22.6 C 6.4 km/h
217 21-05-2022 18:00:00 22.7 C 10.1 g/m*3 22.7 C 6.4 km/h
218 21-05-2022 18:05:00 22.6 C 9.84 g/m*3 22.6 C 8.1 km/h
219 21-05-2022 18:10:00 22.6 C 9.44 g/m*3 22.6 C 6.4 km/h
220 21-05-2022 18:15:00 22.6 C 9.84 g/m*3 22.6 C 4.8 km/h
221 21-05-2022 18:20:00 22.7 C 9.9 g/m*3 22.7 C 6.4 km/h
222 21-05-2022 18:25:00 22.6 C 9.84 g/m*3 22.6 C 8.1 km/h
223 21-05-2022 18:30:00 22.3 C 9.48 g/m*3 22.3 C 8.1 km/h
224 21-05-2022 18:35:00 21.9 C 9.46 g/m*3 21.9 C 12.9 km/h
225 21-05-2022 18:40:00 21.4 C 9.19 g/m*3 21.4 C 8.1 km/h
Sensor: Nr:Datum:Temp:Abs-Feuchte:Windchill:Wind:
Aussen-T/F 226 21-05-2022 18:45:00 21.1 C 9.4 g/m*3 21.1 C 6.4 km/h
227 21-05-2022 18:50:00 21 C 9.34 g/m*3 21 C 4.8 km/h
228 21-05-2022 18:55:00 20.8 C 9.23 g/m*3 20.8 C 6.4 km/h
229 21-05-2022 19:00:00 20.7 C 9.72 g/m*3 20.7 C 9.7 km/h
230 21-05-2022 19:05:00 20.4 C 9.55 g/m*3 20.4 C 11.3 km/h
231 21-05-2022 19:10:00 20.3 C 9.85 g/m*3 20.3 C 6.4 km/h
232 21-05-2022 19:15:00 20.2 C 9.62 g/m*3 20.2 C 9.7 km/h
233 21-05-2022 19:20:00 20.1 C 9.73 g/m*3 20.1 C 6.4 km/h
234 21-05-2022 19:25:00 20.1 C 9.73 g/m*3 20.1 C 8.1 km/h
235 21-05-2022 19:30:00 19.9 C 9.62 g/m*3 19.9 C 9.7 km/h
236 21-05-2022 19:35:00 19.8 C 9.74 g/m*3 19.8 C 6.4 km/h
237 21-05-2022 19:40:00 19.8 C 9.74 g/m*3 19.8 C 4.8 km/h
238 21-05-2022 19:45:00 19.8 C 9.57 g/m*3 19.8 C 4.8 km/h
239 21-05-2022 19:50:00 19.7 C 9.85 g/m*3 19.7 C 4.8 km/h
240 21-05-2022 19:55:00 19.7 C 10.02 g/m*3 19.7 C 0 km/h
241 21-05-2022 20:00:00 19.6 C 10.8 g/m*3 19.6 C 4.8 km/h
242 21-05-2022 20:05:00 19.6 C 10.8 g/m*3 19.6 C 3.2 km/h
243 21-05-2022 20:10:00 19.6 C 11.82 g/m*3 19.6 C 1.6 km/h
244 21-05-2022 20:15:00 19.4 C 12.01 g/m*3 19.4 C 3.2 km/h
245 21-05-2022 20:20:00 19.2 C 12.04 g/m*3 19.2 C 0 km/h
246 21-05-2022 20:25:00 18.9 C 11.83 g/m*3 18.9 C 0 km/h
247 21-05-2022 20:30:00 18.7 C 11.85 g/m*3 18.7 C 0 km/h
248 21-05-2022 20:35:00 18.4 C 11.8 g/m*3 18.4 C 0 km/h
249 21-05-2022 20:40:00 18.2 C 11.81 g/m*3 18.2 C 0 km/h
250 21-05-2022 20:45:00 17.9 C 11.76 g/m*3 17.9 C 0 km/h
Sensor: Nr:Datum:Temp:Abs-Feuchte:Windchill:Wind:
Aussen-T/F 251 21-05-2022 20:50:00 17.6 C 11.4 g/m*3 17.6 C 0 km/h
252 21-05-2022 20:55:00 17.3 C 11.34 g/m*3 17.3 C 1.6 km/h
253 21-05-2022 21:00:00 17.1 C 11.35 g/m*3 17.1 C 1.6 km/h
254 21-05-2022 21:05:00 16.8 C 11.29 g/m*3 16.8 C 0 km/h
255 21-05-2022 21:10:00 16.7 C 11.37 g/m*3 16.7 C 0 km/h
256 21-05-2022 21:15:00 16.6 C 11.44 g/m*3 16.6 C 0 km/h
257 21-05-2022 21:20:00 16.4 C 11.31 g/m*3 16.4 C 0 km/h
258 21-05-2022 21:25:00 16.2 C 11.03 g/m*3 16.2 C 0 km/h
259 21-05-2022 21:30:00 16.1 C 10.97 g/m*3 16.1 C 0 km/h
260 21-05-2022 21:35:00 15.8 C 10.77 g/m*3 15.8 C 0 km/h
261 21-05-2022 21:40:00 15.7 C 10.84 g/m*3 15.7 C 0 km/h
262 21-05-2022 21:45:00 15.4 C 10.64 g/m*3 15.4 C 0 km/h
263 21-05-2022 21:50:00 15.2 C 10.64 g/m*3 15.2 C 0 km/h
264 21-05-2022 21:55:00 14.9 C 10.32 g/m*3 14.9 C 0 km/h
265 21-05-2022 22:00:00 14.7 C 10.32 g/m*3 14.7 C 0 km/h
266 21-05-2022 22:05:00 14.4 C 10.14 g/m*3 14.4 C 0 km/h
267 21-05-2022 22:10:00 14.2 C 10.14 g/m*3 14.2 C 0 km/h
268 21-05-2022 22:15:00 13.9 C 9.95 g/m*3 13.9 C 0 km/h
269 21-05-2022 22:20:00 13.8 C 10.01 g/m*3 13.8 C 0 km/h
270 21-05-2022 22:25:00 13.7 C 10.07 g/m*3 13.7 C 0 km/h
271 21-05-2022 22:30:00 13.5 C 9.94 g/m*3 13.5 C 0 km/h
272 21-05-2022 22:35:00 13.4 C 9.88 g/m*3 13.4 C 0 km/h
273 21-05-2022 22:40:00 13.3 C 9.94 g/m*3 13.3 C 0 km/h
274 21-05-2022 22:45:00 13.2 C 9.87 g/m*3 13.2 C 0 km/h
275 21-05-2022 22:50:00 13.1 C 9.93 g/m*3 13.1 C 0 km/h
Sensor: Nr:Datum:Temp:Abs-Feuchte:Windchill:Wind:
Aussen-T/F 276 21-05-2022 22:55:00 13 C 9.87 g/m*3 13 C 0 km/h
277 21-05-2022 23:00:00 12.9 C 9.81 g/m*3 12.9 C 1.6 km/h
278 21-05-2022 23:05:00 12.8 C 9.74 g/m*3 12.8 C 0 km/h
279 21-05-2022 23:10:00 12.8 C 9.86 g/m*3 12.8 C 0 km/h
280 21-05-2022 23:15:00 12.7 C 9.8 g/m*3 12.7 C 0 km/h
281 21-05-2022 23:20:00 12.6 C 9.74 g/m*3 12.6 C 0 km/h
282 21-05-2022 23:25:00 12.4 C 9.62 g/m*3 12.4 C 0 km/h
283 21-05-2022 23:30:00 12.3 C 9.56 g/m*3 12.3 C 0 km/h
284 21-05-2022 23:35:00 12.3 C 9.66 g/m*3 12.3 C 0 km/h
285 21-05-2022 23:40:00 12.2 C 9.6 g/m*3 12.2 C 0 km/h
286 21-05-2022 23:45:00 12.2 C 9.6 g/m*3 12.2 C 0 km/h
287 21-05-2022 23:50:00 12.1 C 9.65 g/m*3 12.1 C 0 km/h
288 21-05-2022 23:55:00 12 C 9.59 g/m*3 12 C 0 km/h
289 22-05-2022 00:00:00 11.9 C 9.53 g/m*3 11.9 C 0 km/h
290 22-05-2022 00:05:00 11.8 C 9.47 g/m*3 11.8 C 0 km/h
291 22-05-2022 00:10:00 11.8 C 9.47 g/m*3 11.8 C 0 km/h
292 22-05-2022 00:15:00 11.7 C 9.41 g/m*3 11.7 C 0 km/h
293 22-05-2022 00:20:00 11.6 C 9.35 g/m*3 11.6 C 0 km/h
294 22-05-2022 00:25:00 11.4 C 9.24 g/m*3 11.4 C 0 km/h
295 22-05-2022 00:30:00 11.3 C 9.18 g/m*3 11.3 C 0 km/h
296 22-05-2022 00:35:00 11.3 C 9.18 g/m*3 11.3 C 0 km/h
297 22-05-2022 00:40:00 11.2 C 9.12 g/m*3 11.2 C 0 km/h
298 22-05-2022 00:45:00 11.1 C 9.17 g/m*3 11.1 C 0 km/h
299 22-05-2022 00:50:00 11.1 C 9.17 g/m*3 11.1 C 0 km/h
300 22-05-2022 00:55:00 11 C 9.11 g/m*3 11 C 0 km/h
Sensor: Nr:Datum:Temp:Abs-Feuchte:Windchill:Wind:
Aussen-T/F 301 22-05-2022 01:00:00 10.9 C 9.05 g/m*3 10.9 C 1.6 km/h
302 22-05-2022 01:05:00 10.9 C 9.05 g/m*3 10.9 C 1.6 km/h
303 22-05-2022 01:10:00 10.8 C 8.99 g/m*3 10.8 C 0 km/h
304 22-05-2022 01:15:00 10.8 C 8.99 g/m*3 10.8 C 0 km/h
305 22-05-2022 01:20:00 10.7 C 8.94 g/m*3 10.7 C 0 km/h
306 22-05-2022 01:25:00 10.7 C 8.94 g/m*3 10.7 C 0 km/h
307 22-05-2022 01:30:00 10.6 C 8.98 g/m*3 10.6 C 0 km/h
308 22-05-2022 01:35:00 10.6 C 8.98 g/m*3 10.6 C 0 km/h
309 22-05-2022 01:40:00 10.6 C 8.98 g/m*3 10.6 C 0 km/h
310 22-05-2022 01:45:00 10.6 C 9.08 g/m*3 10.6 C 0 km/h
311 22-05-2022 01:50:00 10.7 C 9.13 g/m*3 10.7 C 0 km/h
312 22-05-2022 01:55:00 10.7 C 9.13 g/m*3 10.7 C 0 km/h
313 22-05-2022 02:00:00 10.7 C 9.13 g/m*3 10.7 C 0 km/h
314 22-05-2022 02:05:00 10.8 C 9.19 g/m*3 10.8 C 0 km/h
315 22-05-2022 02:10:00 10.8 C 9.19 g/m*3 10.8 C 0 km/h
316 22-05-2022 02:15:00 10.8 C 9.19 g/m*3 10.8 C 0 km/h
317 22-05-2022 02:20:00 10.7 C 9.13 g/m*3 10.7 C 0 km/h
318 22-05-2022 02:25:00 10.6 C 9.08 g/m*3 10.6 C 0 km/h
319 22-05-2022 02:30:00 10.6 C 9.08 g/m*3 10.6 C 0 km/h
320 22-05-2022 02:35:00 10.5 C 9.02 g/m*3 10.5 C 0 km/h
321 22-05-2022 02:40:00 10.4 C 8.96 g/m*3 10.4 C 0 km/h
322 22-05-2022 02:45:00 10.3 C 8.91 g/m*3 10.3 C 0 km/h
323 22-05-2022 02:50:00 10.3 C 8.91 g/m*3 10.3 C 0 km/h
324 22-05-2022 02:55:00 10.2 C 8.85 g/m*3 10.2 C 0 km/h
325 22-05-2022 03:00:00 10.2 C 8.85 g/m*3 10.2 C 1.6 km/h
Sensor: Nr:Datum:Temp:Abs-Feuchte:Windchill:Wind:
Aussen-T/F 326 22-05-2022 03:05:00 10.1 C 8.79 g/m*3 10.1 C 1.6 km/h
327 22-05-2022 03:10:00 10.1 C 8.79 g/m*3 10.1 C 0 km/h
328 22-05-2022 03:15:00 10.1 C 8.79 g/m*3 10.1 C 0 km/h
329 22-05-2022 03:20:00 10.1 C 8.79 g/m*3 10.1 C 3.2 km/h
330 22-05-2022 03:25:00 10.2 C 8.95 g/m*3 10.2 C 1.6 km/h
331 22-05-2022 03:30:00 10.2 C 8.95 g/m*3 10.2 C 0 km/h
332 22-05-2022 03:35:00 10.3 C 9 g/m*3 10.3 C 0 km/h
333 22-05-2022 03:40:00 10.3 C 9 g/m*3 10.3 C 0 km/h
334 22-05-2022 03:45:00 10.2 C 8.95 g/m*3 10.2 C 0 km/h
335 22-05-2022 03:50:00 10.2 C 8.95 g/m*3 10.2 C 0 km/h
336 22-05-2022 03:55:00 10.1 C 8.89 g/m*3 10.1 C 0 km/h
337 22-05-2022 04:00:00 10.1 C 8.89 g/m*3 10.1 C 1.6 km/h
338 22-05-2022 04:05:00 9.9 C 8.68 g/m*3 9.9 C 0 km/h
339 22-05-2022 04:10:00 9.8 C 8.63 g/m*3 9.8 C 0 km/h
340 22-05-2022 04:15:00 9.8 C 8.63 g/m*3 9.8 C 0 km/h
341 22-05-2022 04:20:00 9.7 C 8.67 g/m*3 9.7 C 0 km/h
342 22-05-2022 04:25:00 9.7 C 8.57 g/m*3 9.7 C 0 km/h
343 22-05-2022 04:30:00 9.7 C 8.67 g/m*3 9.7 C 0 km/h
344 22-05-2022 04:35:00 9.6 C 8.52 g/m*3 9.6 C 0 km/h
345 22-05-2022 04:40:00 9.5 C 8.56 g/m*3 9.5 C 0 km/h
346 22-05-2022 04:45:00 9.4 C 8.5 g/m*3 9.4 C 0 km/h
347 22-05-2022 04:50:00 9.3 C 8.45 g/m*3 9.3 C 0 km/h
348 22-05-2022 04:55:00 9.3 C 8.45 g/m*3 9.3 C 0 km/h
349 22-05-2022 05:00:00 9.2 C 8.39 g/m*3 9.2 C 0 km/h
350 22-05-2022 05:05:00 9.2 C 8.39 g/m*3 9.2 C 0 km/h
Sensor: Nr:Datum:Temp:Abs-Feuchte:Windchill:Wind:
Aussen-T/F 351 22-05-2022 05:10:00 9.1 C 8.34 g/m*3 9.1 C 0 km/h
352 22-05-2022 05:15:00 9.1 C 8.34 g/m*3 9.1 C 0 km/h
353 22-05-2022 05:20:00 9 C 8.29 g/m*3 9 C 0 km/h
354 22-05-2022 05:25:00 8.9 C 8.23 g/m*3 8.9 C 0 km/h
355 22-05-2022 05:30:00 8.9 C 8.23 g/m*3 8.9 C 1.6 km/h
356 22-05-2022 05:35:00 8.9 C 8.23 g/m*3 8.9 C 0 km/h
357 22-05-2022 05:40:00 8.9 C 8.23 g/m*3 8.9 C 0 km/h
358 22-05-2022 05:45:00 8.9 C 8.23 g/m*3 8.9 C 0 km/h
359 22-05-2022 05:50:00 8.9 C 8.23 g/m*3 8.9 C 0 km/h
360 22-05-2022 05:55:00 8.9 C 8.32 g/m*3 8.9 C 0 km/h
361 22-05-2022 06:00:00 8.8 C 8.27 g/m*3 8.8 C 0 km/h
362 22-05-2022 06:05:00 8.9 C 8.32 g/m*3 8.9 C 0 km/h
363 22-05-2022 06:10:00 8.9 C 8.32 g/m*3 8.9 C 0 km/h
364 22-05-2022 06:15:00 9.1 C 8.43 g/m*3 9.1 C 0 km/h
365 22-05-2022 06:20:00 9.2 C 8.48 g/m*3 9.2 C 0 km/h
366 22-05-2022 06:25:00 9.2 C 8.48 g/m*3 9.2 C 0 km/h
367 22-05-2022 06:30:00 9.2 C 8.48 g/m*3 9.2 C 0 km/h
368 22-05-2022 06:35:00 9.2 C 8.48 g/m*3 9.2 C 0 km/h
369 22-05-2022 06:40:00 9.1 C 8.43 g/m*3 9.1 C 1.6 km/h
370 22-05-2022 06:45:00 9.1 C 8.43 g/m*3 9.1 C 0 km/h
371 22-05-2022 06:50:00 9.1 C 8.43 g/m*3 9.1 C 0 km/h
372 22-05-2022 06:55:00 9.1 C 8.43 g/m*3 9.1 C 0 km/h
373 22-05-2022 07:00:00 9.1 C 8.43 g/m*3 9.1 C 0 km/h
374 22-05-2022 07:05:00 9.2 C 8.48 g/m*3 9.2 C 0 km/h
375 22-05-2022 07:10:00 9.2 C 8.48 g/m*3 9.2 C 0 km/h
Sensor: Nr:Datum:Temp:Abs-Feuchte:Windchill:Wind:
Aussen-T/F 376 22-05-2022 07:15:00 9.2 C 8.48 g/m*3 9.2 C 0 km/h
377 22-05-2022 07:20:00 9.2 C 8.48 g/m*3 9.2 C 0 km/h
378 22-05-2022 07:25:00 9.3 C 8.54 g/m*3 9.3 C 0 km/h
379 22-05-2022 07:30:00 9.3 C 8.54 g/m*3 9.3 C 0 km/h
380 22-05-2022 07:35:00 9.4 C 8.59 g/m*3 9.4 C 0 km/h
381 22-05-2022 07:40:00 9.5 C 8.74 g/m*3 9.5 C 1.6 km/h
382 22-05-2022 07:45:00 9.6 C 8.79 g/m*3 9.6 C 0 km/h
383 22-05-2022 07:50:00 9.7 C 8.76 g/m*3 9.7 C 0 km/h
384 22-05-2022 07:55:00 9.7 C 8.76 g/m*3 9.7 C 0 km/h
385 22-05-2022 08:00:00 9.8 C 8.91 g/m*3 9.8 C 3.2 km/h
386 22-05-2022 08:05:00 9.9 C 8.96 g/m*3 9.9 C 1.6 km/h
387 22-05-2022 08:10:00 10.1 C 9.08 g/m*3 10.1 C 1.6 km/h
388 22-05-2022 08:15:00 10.2 C 9.14 g/m*3 10.2 C 1.6 km/h
389 22-05-2022 08:20:00 10.2 C 9.14 g/m*3 10.2 C 1.6 km/h
390 22-05-2022 08:25:00 10.3 C 9.19 g/m*3 10.3 C 0 km/h
391 22-05-2022 08:30:00 10.4 C 9.25 g/m*3 10.4 C 0 km/h
392 22-05-2022 08:35:00 10.4 C 9.25 g/m*3 10.4 C 0 km/h
393 22-05-2022 08:40:00 10.5 C 9.31 g/m*3 10.5 C 0 km/h
394 22-05-2022 08:45:00 10.6 C 9.37 g/m*3 10.6 C 1.6 km/h
395 22-05-2022 08:50:00 10.8 C 9.49 g/m*3 10.8 C 3.2 km/h
396 22-05-2022 08:55:00 11 C 9.61 g/m*3 11 C 4.8 km/h
397 22-05-2022 09:00:00 11.3 C 9.79 g/m*3 11.3 C 1.6 km/h
398 22-05-2022 09:05:00 11.5 C 9.92 g/m*3 11.5 C 3.2 km/h
399 22-05-2022 09:10:00 11.7 C 10.04 g/m*3 11.7 C 0 km/h
400 22-05-2022 09:15:00 11.9 C 10.17 g/m*3 11.9 C 0 km/h
Sensor: Nr:Datum:Temp:Abs-Feuchte:Windchill:Wind:
Aussen-T/F 401 22-05-2022 09:20:00 12.3 C 10.42 g/m*3 12.3 C 0 km/h
402 22-05-2022 09:25:00 12.6 C 10.62 g/m*3 12.6 C 0 km/h
403 22-05-2022 09:30:00 12.7 C 10.69 g/m*3 12.7 C 0 km/h
404 22-05-2022 09:35:00 12.8 C 10.64 g/m*3 12.8 C 0 km/h
405 22-05-2022 09:40:00 12.8 C 10.64 g/m*3 12.8 C 0 km/h
406 22-05-2022 09:45:00 12.9 C 10.71 g/m*3 12.9 C 0 km/h
407 22-05-2022 09:50:00 13.1 C 10.84 g/m*3 13.1 C 0 km/h
408 22-05-2022 09:55:00 13.2 C 10.91 g/m*3 13.2 C 0 km/h
409 22-05-2022 10:00:00 13.3 C 10.98 g/m*3 13.3 C 0 km/h
410 22-05-2022 10:05:00 13.4 C 11.04 g/m*3 13.4 C 0 km/h
411 22-05-2022 10:10:00 13.7 C 11.25 g/m*3 13.7 C 0 km/h
412 22-05-2022 10:15:00 13.9 C 11.39 g/m*3 13.9 C 0 km/h
413 22-05-2022 10:20:00 14.1 C 11.41 g/m*3 14.1 C 1.6 km/h
414 22-05-2022 10:25:00 14.2 C 11.48 g/m*3 14.2 C 0 km/h
415 22-05-2022 10:30:00 14.4 C 11.62 g/m*3 14.4 C 0 km/h
416 22-05-2022 10:35:00 14.8 C 11.91 g/m*3 14.8 C 0 km/h
417 22-05-2022 10:40:00 15.1 C 11.87 g/m*3 15.1 C 0 km/h
418 22-05-2022 10:45:00 15.3 C 11.75 g/m*3 15.3 C 0 km/h
419 22-05-2022 10:50:00 15.8 C 11.85 g/m*3 15.8 C 1.6 km/h
420 22-05-2022 10:55:00 16.3 C 11.93 g/m*3 16.3 C 1.6 km/h
421 22-05-2022 11:00:00 16.7 C 11.8 g/m*3 16.7 C 6.4 km/h
422 22-05-2022 11:05:00 17.4 C 10.97 g/m*3 17.4 C 8.1 km/h
423 22-05-2022 11:10:00 18 C 11.06 g/m*3 18 C 1.6 km/h
424 22-05-2022 11:15:00 18.4 C 11.48 g/m*3 18.4 C 0 km/h
425 22-05-2022 11:20:00 18.7 C 10.73 g/m*3 18.7 C 8.1 km/h
Sensor: Nr:Datum:Temp:Abs-Feuchte:Windchill:Wind:
Aussen-T/F 426 22-05-2022 11:25:00 19.1 C 11.47 g/m*3 19.1 C 0 km/h
427 22-05-2022 11:30:00 19.3 C 10.95 g/m*3 19.3 C 0 km/h
428 22-05-2022 11:35:00 19.6 C 10.64 g/m*3 19.6 C 11.3 km/h
429 22-05-2022 11:40:00 19.8 C 10.59 g/m*3 19.8 C 6.4 km/h
430 22-05-2022 11:45:00 20.1 C 10.78 g/m*3 20.1 C 4.8 km/h
431 22-05-2022 11:50:00 20.4 C 10.79 g/m*3 20.4 C 4.8 km/h
432 22-05-2022 11:55:00 20.8 C 10.68 g/m*3 20.8 C 9.7 km/h
433 22-05-2022 12:00:00 21 C 10.44 g/m*3 21 C 8.1 km/h
434 22-05-2022 12:05:00 21.1 C 10.32 g/m*3 21.1 C 9.7 km/h
435 22-05-2022 12:10:00 21.2 C 10.38 g/m*3 21.2 C 6.4 km/h
436 22-05-2022 12:15:00 21.3 C 10.07 g/m*3 21.3 C 1.6 km/h
437 22-05-2022 12:20:00 21.4 C 10.5 g/m*3 21.4 C 3.2 km/h
438 22-05-2022 12:25:00 21.7 C 11.06 g/m*3 21.7 C 1.6 km/h
439 22-05-2022 12:30:00 21.8 C 10.36 g/m*3 21.8 C 6.4 km/h
440 22-05-2022 12:35:00 21.9 C 10.61 g/m*3 21.9 C 0 km/h
441 22-05-2022 12:40:00 21.9 C 10.42 g/m*3 21.9 C 9.7 km/h
442 22-05-2022 12:45:00 21.9 C 10.61 g/m*3 21.9 C 6.4 km/h
443 22-05-2022 12:50:00 21.8 C 9.78 g/m*3 21.8 C 12.9 km/h
444 22-05-2022 12:55:00 21.8 C 10.17 g/m*3 21.8 C 3.2 km/h
445 22-05-2022 13:00:00 21.8 C 10.36 g/m*3 21.8 C 8.1 km/h
446 22-05-2022 13:05:00 21.9 C 10.42 g/m*3 21.9 C 6.4 km/h
447 22-05-2022 13:10:00 21.9 C 10.23 g/m*3 21.9 C 1.6 km/h
448 22-05-2022 13:15:00 22.2 C 10.41 g/m*3 22.2 C 3.2 km/h
449 22-05-2022 13:20:00 22.4 C 10.53 g/m*3 22.4 C 6.4 km/h
450 22-05-2022 13:25:00 22.7 C 10.1 g/m*3 22.7 C 4.8 km/h
Sensor: Nr:Datum:Temp:Abs-Feuchte:Windchill:Wind:
Aussen-T/F 451 22-05-2022 13:30:00 22.9 C 10.22 g/m*3 22.9 C 6.4 km/h
452 22-05-2022 13:35:00 22.9 C 9.4 g/m*3 22.9 C 0 km/h
453 22-05-2022 13:40:00 22.9 C 10.42 g/m*3 22.9 C 4.8 km/h
454 22-05-2022 13:45:00 22.9 C 9.61 g/m*3 22.9 C 3.2 km/h
455 22-05-2022 13:50:00 23.1 C 9.92 g/m*3 23.1 C 1.6 km/h
456 22-05-2022 13:55:00 23.2 C 9.98 g/m*3 23.2 C 4.8 km/h
457 22-05-2022 14:00:00 23.4 C 10.09 g/m*3 23.4 C 6.4 km/h
458 22-05-2022 14:05:00 23.6 C 10.21 g/m*3 23.6 C 8.1 km/h
459 22-05-2022 14:10:00 23.6 C 9.36 g/m*3 23.6 C 6.4 km/h
460 22-05-2022 14:15:00 23.6 C 9.15 g/m*3 23.6 C 8.1 km/h
461 22-05-2022 14:20:00 23.7 C 9.2 g/m*3 23.7 C 6.4 km/h
462 22-05-2022 14:25:00 23.9 C 10.38 g/m*3 23.9 C 6.4 km/h
463 22-05-2022 14:30:00 24.1 C 9.85 g/m*3 24.1 C 4.8 km/h
464 22-05-2022 14:35:00 24.2 C 9.68 g/m*3 24.2 C 6.4 km/h
465 22-05-2022 14:40:00 24.3 C 9.74 g/m*3 24.3 C 6.4 km/h
466 22-05-2022 14:45:00 24.2 C 9.46 g/m*3 24.2 C 12.9 km/h
467 22-05-2022 14:50:00 24.1 C 10.06 g/m*3 24.1 C 0 km/h
468 22-05-2022 14:55:00 24.2 C 10.12 g/m*3 24.2 C 0 km/h
469 22-05-2022 15:00:00 24.3 C 10.18 g/m*3 24.3 C 3.2 km/h
470 22-05-2022 15:05:00 24.5 C 9.18 g/m*3 24.5 C 4.8 km/h
471 22-05-2022 15:10:00 24.5 C 9.62 g/m*3 24.5 C 8.1 km/h
472 22-05-2022 15:15:00 24.3 C 9.74 g/m*3 24.3 C 12.9 km/h
473 22-05-2022 15:20:00 24.3 C 10.4 g/m*3 24.3 C 9.7 km/h
474 22-05-2022 15:25:00 24.4 C 10.01 g/m*3 24.4 C 9.7 km/h
475 22-05-2022 15:30:00 24.3 C 9.52 g/m*3 24.3 C 12.9 km/h
Sensor: Nr:Datum:Temp:Abs-Feuchte:Windchill:Wind:
Aussen-T/F 476 22-05-2022 15:35:00 24.3 C 9.52 g/m*3 24.3 C 8.1 km/h
477 22-05-2022 15:40:00 24.2 C 9.02 g/m*3 24.2 C 9.7 km/h
478 22-05-2022 15:45:00 24.1 C 9.19 g/m*3 24.1 C 6.4 km/h
479 22-05-2022 15:50:00 24.2 C 9.46 g/m*3 24.2 C 9.7 km/h
480 22-05-2022 15:55:00 24.3 C 9.96 g/m*3 24.3 C 6.4 km/h
481 22-05-2022 16:00:00 24.4 C 9.57 g/m*3 24.4 C 9.7 km/h
482 22-05-2022 16:05:00 24.4 C 9.79 g/m*3 24.4 C 11.3 km/h
483 22-05-2022 16:10:00 24.3 C 9.29 g/m*3 24.3 C 8.1 km/h
484 22-05-2022 16:15:00 24.2 C 9.9 g/m*3 24.2 C 6.4 km/h
485 22-05-2022 16:20:00 24.4 C 9.79 g/m*3 24.4 C 4.8 km/h
486 22-05-2022 16:25:00 24.5 C 9.85 g/m*3 24.5 C 8.1 km/h
487 22-05-2022 16:30:00 24.6 C 9.9 g/m*3 24.6 C 9.7 km/h
488 22-05-2022 16:35:00 24.8 C 9.1 g/m*3 24.8 C 6.4 km/h
489 22-05-2022 16:40:00 25 C 9.44 g/m*3 25 C 6.4 km/h
490 22-05-2022 16:45:00 25.1 C 9.72 g/m*3 25.1 C 6.4 km/h
491 22-05-2022 16:50:00 25.2 C 9.31 g/m*3 25.2 C 8.1 km/h
492 22-05-2022 16:55:00 25.4 C 9.42 g/m*3 25.4 C 6.4 km/h
493 22-05-2022 17:00:00 25.6 C 9.28 g/m*3 25.6 C 8.1 km/h
494 22-05-2022 17:05:00 25.6 C 9.52 g/m*3 25.6 C 9.7 km/h
495 22-05-2022 17:10:00 25.3 C 9.6 g/m*3 25.3 C 6.4 km/h
496 22-05-2022 17:15:00 25.3 C 9.83 g/m*3 25.3 C 6.4 km/h
497 22-05-2022 17:20:00 25.4 C 9.65 g/m*3 25.4 C 6.4 km/h
498 22-05-2022 17:25:00 25.5 C 9.94 g/m*3 25.5 C 1.6 km/h
499 22-05-2022 17:30:00 25.6 C 9.52 g/m*3 25.6 C 4.8 km/h
500 22-05-2022 17:35:00 25.5 C 9.71 g/m*3 25.5 C 6.4 km/h
Sensor: Nr:Datum:Temp:Abs-Feuchte:Windchill:Wind:
Aussen-T/F 501 22-05-2022 17:40:00 25.4 C 10.12 g/m*3 25.4 C 4.8 km/h
502 22-05-2022 17:45:00 25.1 C 9.95 g/m*3 25.1 C 6.4 km/h
503 22-05-2022 17:50:00 24.8 C 10.02 g/m*3 24.8 C 3.2 km/h
504 22-05-2022 17:55:00 24.6 C 9.68 g/m*3 24.6 C 3.2 km/h
505 22-05-2022 18:00:00 24.6 C 9.68 g/m*3 24.6 C 3.2 km/h
506 22-05-2022 18:05:00 24.6 C 10.13 g/m*3 24.6 C 4.8 km/h
507 22-05-2022 18:10:00 24.7 C 10.19 g/m*3 24.7 C 8.1 km/h
508 22-05-2022 18:15:00 24.6 C 10.8 g/m*3 24.6 C 9.7 km/h
509 22-05-2022 18:20:00 24.5 C 11.19 g/m*3 24.5 C 4.8 km/h
510 22-05-2022 18:25:00 24.4 C 11.79 g/m*3 24.4 C 4.8 km/h
511 22-05-2022 18:30:00 24.3 C 12.39 g/m*3 24.3 C 1.6 km/h
512 22-05-2022 18:35:00 24.3 C 12.39 g/m*3 24.3 C 4.8 km/h
513 22-05-2022 18:40:00 24.2 C 11 g/m*3 24.2 C 8.1 km/h
514 22-05-2022 18:45:00 24.1 C 11.82 g/m*3 24.1 C 4.8 km/h
515 22-05-2022 18:50:00 23.9 C 11.03 g/m*3 23.9 C 3.2 km/h
516 22-05-2022 18:55:00 23.9 C 13.2 g/m*3 23.9 C 3.2 km/h
517 22-05-2022 19:00:00 23.9 C 13.2 g/m*3 23.9 C 0 km/h
518 22-05-2022 19:05:00 23.7 C 12.19 g/m*3 23.7 C 4.8 km/h
519 22-05-2022 19:10:00 23.6 C 13.4 g/m*3 23.6 C 0 km/h
520 22-05-2022 19:15:00 23.4 C 11.57 g/m*3 23.4 C 4.8 km/h
521 22-05-2022 19:20:00 23.4 C 11.35 g/m*3 23.4 C 4.8 km/h
522 22-05-2022 19:25:00 23.4 C 12.83 g/m*3 23.4 C 1.6 km/h
523 22-05-2022 19:30:00 23.4 C 13.04 g/m*3 23.4 C 1.6 km/h
524 22-05-2022 19:35:00 23.4 C 13.04 g/m*3 23.4 C 0 km/h
525 22-05-2022 19:40:00 23.3 C 11.29 g/m*3 23.3 C 6.4 km/h
Sensor: Nr:Datum:Temp:Abs-Feuchte:Windchill:Wind:
Aussen-T/F 526 22-05-2022 19:45:00 23.3 C 11.71 g/m*3 23.3 C 8.1 km/h
527 22-05-2022 19:50:00 23.3 C 11.29 g/m*3 23.3 C 9.7 km/h
528 22-05-2022 19:55:00 23.2 C 11.64 g/m*3 23.2 C 8.1 km/h
529 22-05-2022 20:00:00 23.1 C 11.16 g/m*3 23.1 C 9.7 km/h
530 22-05-2022 20:05:00 22.9 C 11.44 g/m*3 22.9 C 4.8 km/h
531 22-05-2022 20:10:00 22.9 C 12.06 g/m*3 22.9 C 4.8 km/h
532 22-05-2022 20:15:00 22.8 C 11.58 g/m*3 22.8 C 4.8 km/h
533 22-05-2022 20:20:00 22.7 C 12.53 g/m*3 22.7 C 1.6 km/h
534 22-05-2022 20:25:00 22.5 C 12.38 g/m*3 22.5 C 1.6 km/h
535 22-05-2022 20:30:00 22.3 C 12.64 g/m*3 22.3 C 0 km/h
536 22-05-2022 20:35:00 22.2 C 13.15 g/m*3 22.2 C 0 km/h
537 22-05-2022 20:40:00 21.9 C 12.93 g/m*3 21.9 C 0 km/h
538 22-05-2022 20:45:00 21.6 C 13.09 g/m*3 21.6 C 0 km/h
539 22-05-2022 20:50:00 21.3 C 13.05 g/m*3 21.3 C 0 km/h
540 22-05-2022 20:55:00 21 C 13.01 g/m*3 21 C 1.6 km/h
541 22-05-2022 21:00:00 20.7 C 12.78 g/m*3 20.7 C 0 km/h
542 22-05-2022 21:05:00 20.3 C 12.84 g/m*3 20.3 C 0 km/h
543 22-05-2022 21:10:00 20 C 12.62 g/m*3 20 C 3.2 km/h
544 22-05-2022 21:15:00 19.7 C 12.57 g/m*3 19.7 C 4.8 km/h
545 22-05-2022 21:20:00 19.3 C 12.27 g/m*3 19.3 C 3.2 km/h
546 22-05-2022 21:25:00 18.9 C 11.99 g/m*3 18.9 C 3.2 km/h
547 22-05-2022 21:30:00 18.6 C 11.94 g/m*3 18.6 C 0 km/h
548 22-05-2022 21:35:00 18.3 C 11.88 g/m*3 18.3 C 0 km/h
549 22-05-2022 21:40:00 18 C 11.67 g/m*3 18 C 1.6 km/h
550 22-05-2022 21:45:00 17.8 C 11.69 g/m*3 17.8 C 4.8 km/h
Sensor: Nr:Datum:Temp:Abs-Feuchte:Windchill:Wind:
Aussen-T/F 551 22-05-2022 21:50:00 17.6 C 11.7 g/m*3 17.6 C 1.6 km/h
552 22-05-2022 21:55:00 17.3 C 11.49 g/m*3 17.3 C 0 km/h
553 22-05-2022 22:00:00 17.1 C 11.35 g/m*3 17.1 C 1.6 km/h
554 22-05-2022 22:05:00 16.9 C 11.36 g/m*3 16.9 C 0 km/h
555 22-05-2022 22:10:00 16.8 C 11.44 g/m*3 16.8 C 0 km/h
556 22-05-2022 22:15:00 16.7 C 11.37 g/m*3 16.7 C 0 km/h
557 22-05-2022 22:20:00 16.6 C 11.44 g/m*3 16.6 C 0 km/h
558 22-05-2022 22:25:00 16.4 C 11.31 g/m*3 16.4 C 0 km/h
559 22-05-2022 22:30:00 16.4 C 11.45 g/m*3 16.4 C 0 km/h
560 22-05-2022 22:35:00 16.3 C 11.38 g/m*3 16.3 C 0 km/h
561 22-05-2022 22:40:00 16.2 C 11.45 g/m*3 16.2 C 1.6 km/h
562 22-05-2022 22:45:00 16.2 C 11.45 g/m*3 16.2 C 0 km/h
563 22-05-2022 22:50:00 16.1 C 11.38 g/m*3 16.1 C 0 km/h
564 22-05-2022 22:55:00 16 C 11.31 g/m*3 16 C 0 km/h
565 22-05-2022 23:00:00 15.9 C 11.38 g/m*3 15.9 C 0 km/h
566 22-05-2022 23:05:00 15.9 C 11.38 g/m*3 15.9 C 1.6 km/h
567 22-05-2022 23:10:00 15.9 C 11.38 g/m*3 15.9 C 0 km/h
568 22-05-2022 23:15:00 15.8 C 11.31 g/m*3 15.8 C 0 km/h
569 22-05-2022 23:20:00 15.8 C 11.31 g/m*3 15.8 C 0 km/h
570 22-05-2022 23:25:00 15.7 C 11.24 g/m*3 15.7 C 0 km/h
571 22-05-2022 23:30:00 15.6 C 11.17 g/m*3 15.6 C 1.6 km/h
572 22-05-2022 23:35:00 15.5 C 11.1 g/m*3 15.5 C 0 km/h
573 22-05-2022 23:40:00 15.4 C 11.04 g/m*3 15.4 C 1.6 km/h
574 22-05-2022 23:45:00 15.3 C 10.97 g/m*3 15.3 C 3.2 km/h
575 22-05-2022 23:50:00 15.2 C 10.9 g/m*3 15.2 C 3.2 km/h
Sensor: Nr:Datum:Temp:Abs-Feuchte:Windchill:Wind:
Aussen-T/F 576 22-05-2022 23:55:00 15.2 C 11.03 g/m*3 15.2 C 3.2 km/h

Legende:
   Min
   Max


Maximal/Minimal-Werte vom 21.05.2022 - 22.05.2022

Sensor Min Max Avg
Temp
(Aussen-T/F)
8.8 °C
22-05-2022  06:00:00
25.6 °C
22-05-2022  17:00:00
16.17 °C
Abs-Feuchte
(Aussen-T/F)
8.23 g/m*3
22-05-2022  05:25:00
13.4 g/m*3
22-05-2022  19:10:00
9.96 g/m*3
Windchill
(Aussen-T/F)
8.73 C
21-05-2022  04:45:00
25.6 C
22-05-2022  17:00:00
16.08 C

Die Daten stammen von einer Davis Vantage Pro 2 Wetter-Station und werden unter Linux mit der Software wview2wettercgi und aufbereitet. Alle Angaben erfolgen ohne Gewähr für ihre Vollständigkeit oder Richtigkeit.
Kontakt: Rainer Krienke krienke@uni-koblenz.de . Meine Webseiten an der Uni Koblenz oder privat.
Version: $Revision: 0.78 $